USA 283

Last updated on Fri Jun 20 2025 00:02:46 GMT+0000 (Coordinated Universal Time)

1 43339U 18036A 25170.53773591 -.00000306 00000+0 00000+0 0 9993 2 43339 0.0165 358.7595 0000293 271.7170 325.2252 1.00269054 3761
UTC large
Height (km)
Speed (km/s)
/
Latitude / Longitude
Inclination (degrees)
Orbital Period (minutes)
Azimuth
Elevation
Range (km)
Doppler Factor

Next 0 passes for location: London (51.5072 / 0.1276)

Sorry there are no passes over London.